Location: Civís
(42.4648°N, 1.4232°E)
Time: 17:33:09
(UTC+00:00)

Cosmos 1441 Rocket - Pass Details

Date: 22 November 2025
Orbit: 425 x 449 km, 81.1° (Epoch: 04 December)

Event Time Altitude Azimuth Distance (km) Brightness Sun altitude
Rises 05:15:31 0° 192° (SSW) 2,380 6.6 -17.9°
Reaches altitude 10° 05:17:33 10° 194° (SSW) 1,516 5.5 -17.6°
Maximum altitude 05:20:51 76° 280° (W) 444 2.6 -17.0°
Drops below altitude 10° 05:24:10 10° 7° (N) 1,525 5.5 -16.4°
Sets 05:26:14 0° 9° (N) 2,396 6.6 -16.0°
